When you browse on this site, cookies collect data to enhance your experience and personalize the content and advertising you see.
Visit our Privacy Policy to learn more. By continuing to use the site, you agree to this use of cookies and data.
  • en Belgique
  • Liste des pays
  • À 7 jours
  • Température de l'eau
  • Carte satellitaire
  • Carte météo
  • Widgets météo
  • user-avatar
    Se connecter

    Météo par heure à Ramultowice

    Ce jour, 18 Novembre, Dimanche

    Heure Température Précipitation Vent Pression Humidité
    00:00 -2°C° 0 mm 2 m/s 764 mmHg 57%
    01:00 -2°C° 0 mm 2 m/s 763 mmHg 57%
    02:00 0°C° 0 mm 1 m/s 763 mmHg 57%
    03:00 0°C° 0 mm 1 m/s 763 mmHg 57%
    04:00 0°C° 0 mm 1 m/s 762 mmHg 57%
    05:00 0°C° 0 mm 1 m/s 762 mmHg 56%
    06:00 0°C° 0 mm 1 m/s 761 mmHg 56%
    07:00 -1°C° 0 mm 1 m/s 761 mmHg 56%
    08:00 +1°C° 0 mm 1 m/s 761 mmHg 51%
    09:00 +2°C° 0 mm 1 m/s 761 mmHg 46%
    10:00 +3°C° 0 mm 1 m/s 760 mmHg 42%
    11:00 +2°C° 0 mm 2 m/s 760 mmHg 40%
    12:00 +3°C° 0 mm 2 m/s 759 mmHg 38%
    13:00 +3°C° 0 mm 2 m/s 758 mmHg 37%
    14:00 +3°C° 0 mm 2 m/s 758 mmHg 41%
    15:00 +2°C° 0 mm 2 m/s 757 mmHg 45%
    16:00 +2°C° 0 mm 2 m/s 757 mmHg 50%
    17:00 +2°C° 0 mm 2 m/s 756 mmHg 59%
    18:00 +1°C° 0 mm 2 m/s 756 mmHg 68%
    19:00 +1°C° 0 mm 2 m/s 756 mmHg 77%
    20:00 +1°C° 0.1 mm 2 m/s 756 mmHg 82%
    21:00 +2°C° 0.1 mm 2 m/s 755 mmHg 87%
    22:00 +2°C° 0.1 mm 2 m/s 755 mmHg 92%
    23:00 +2°C° 0 mm 2 m/s 755 mmHg 92%

    Demain, 19 Novembre, Lundi

    Heure Température Précipitation Vent Pression Humidité
    00:00 +1°C° 0 mm 3 m/s 755 mmHg 92%
    01:00 +1°C° 0 mm 3 m/s 755 mmHg 93%
    02:00 +1°C° 0 mm 3 m/s 754 mmHg 93%
    03:00 +1°C° 0 mm 3 m/s 754 mmHg 93%
    04:00 +1°C° 0 mm 3 m/s 754 mmHg 93%
    05:00 +1°C° 0.1 mm 3 m/s 754 mmHg 93%
    06:00 +1°C° 0.1 mm 3 m/s 753 mmHg 93%
    07:00 +1°C° 0.1 mm 3 m/s 753 mmHg 94%
    08:00 0°C° 0.1 mm 4 m/s 753 mmHg 90%
    09:00 0°C° 0.1 mm 4 m/s 753 mmHg 87%
    10:00 +1°C° 0.1 mm 5 m/s 753 mmHg 83%
    11:00 +1°C° 0.1 mm 5 m/s 753 mmHg 81%
    12:00 +1°C° 0.1 mm 5 m/s 753 mmHg 79%
    13:00 +1°C° 0.1 mm 6 m/s 753 mmHg 77%
    14:00 +1°C° 0 mm 5 m/s 753 mmHg 77%
    15:00 +1°C° 0 mm 5 m/s 753 mmHg 77%
    16:00 +1°C° 0 mm 5 m/s 753 mmHg 77%
    17:00 0°C° 0 mm 5 m/s 753 mmHg 78%
    18:00 -1°C° 0 mm 5 m/s 753 mmHg 80%
    19:00 -1°C° 0 mm 5 m/s 754 mmHg 81%
    20:00 -1°C° 0 mm 5 m/s 754 mmHg 82%
    21:00 -2°C° 0 mm 5 m/s 754 mmHg 83%
    22:00 -2°C° 0 mm 5 m/s 754 mmHg 85%
    23:00 -2°C° 0 mm 5 m/s 754 mmHg 84%

    Après-demain, 20 Novembre, Mardi

    Heure Température Précipitation Vent Pression Humidité
    00:00 -3°C° 0 mm 4 m/s 754 mmHg 84%
    01:00 -3°C° 0 mm 4 m/s 754 mmHg 84%
    02:00 -3°C° 0 mm 4 m/s 753 mmHg 83%
    03:00 -3°C° 0 mm 4 m/s 753 mmHg 82%
    04:00 -3°C° 0 mm 4 m/s 753 mmHg 81%
    05:00 -3°C° 0 mm 4 m/s 753 mmHg 81%
    06:00 -3°C° 0 mm 4 m/s 752 mmHg 81%
    07:00 -3°C° 0 mm 4 m/s 752 mmHg 81%
    08:00 -3°C° 0 mm 4 m/s 752 mmHg 78%
    09:00 -2°C° 0 mm 5 m/s 752 mmHg 74%
    10:00 -2°C° 0 mm 6 m/s 752 mmHg 70%
    11:00 -1°C° 0 mm 6 m/s 751 mmHg 67%
    12:00 -1°C° 0 mm 6 m/s 750 mmHg 65%
    13:00 +1°C° 0 mm 6 m/s 750 mmHg 62%
    14:00 +1°C° 0 mm 6 m/s 749 mmHg 63%
    15:00 -1°C° 0 mm 6 m/s 749 mmHg 63%
    16:00 0°C° 0 mm 5 m/s 748 mmHg 64%
    17:00 -1°C° 0.2 mm 6 m/s 748 mmHg 67%
    18:00 -2°C° 0.2 mm 6 m/s 748 mmHg 70%
    19:00 -2°C° 0.2 mm 6 m/s 748 mmHg 73%
    20:00 -2°C° 0.5 mm 6 m/s 748 mmHg 76%
    21:00 -1°C° 0.5 mm 5 m/s 748 mmHg 78%
    22:00 -1°C° 0.5 mm 5 m/s 747 mmHg 80%
    23:00 -1°C° 0.6 mm 5 m/s 747 mmHg 83%

    21 Novembre, Mercredi

    Heure Température Précipitation Vent Pression Humidité
    00:00 -1°C° 0.6 mm 5 m/s 748 mmHg 86%
    01:00 -1°C° 0.6 mm 4 m/s 748 mmHg 89%
    02:00 -1°C° 0.3 mm 4 m/s 748 mmHg 90%
    03:00 -1°C° 0.3 mm 4 m/s 748 mmHg 91%
    04:00 -1°C° 0.3 mm 4 m/s 748 mmHg 92%
    05:00 -1°C° 0.1 mm 4 m/s 748 mmHg 92%
    06:00 -1°C° 0.1 mm 4 m/s 748 mmHg 92%
    07:00 -1°C° 0.1 mm 4 m/s 749 mmHg 93%
    08:00 -1°C° 0 mm 4 m/s 749 mmHg 92%
    09:00 -1°C° 0 mm 4 m/s 750 mmHg 92%
    10:00 -1°C° 0 mm 4 m/s 750 mmHg 92%
    11:00 0°C° 0.1 mm 4 m/s 750 mmHg 92%
    12:00 0°C° 0.1 mm 4 m/s 750 mmHg 91%
    13:00 0°C° 0.1 mm 4 m/s 751 mmHg 91%
    14:00 0°C° 0.1 mm 4 m/s 751 mmHg 91%
    15:00 0°C° 0.1 mm 4 m/s 751 mmHg 91%
    16:00 -1°C° 0.1 mm 4 m/s 751 mmHg 91%
    17:00 -1°C° 0.1 mm 4 m/s 752 mmHg 91%
    18:00 -1°C° 0.1 mm 4 m/s 752 mmHg 91%
    19:00 0°C° 0.1 mm 3 m/s 752 mmHg 92%
    20:00 0°C° 0.1 mm 3 m/s 753 mmHg 92%
    21:00 -1°C° 0.1 mm 4 m/s 753 mmHg 92%
    22:00 -1°C° 0.1 mm 4 m/s 753 mmHg 92%
    23:00 -1°C° 0 mm 4 m/s 753 mmHg 92%

    22 Novembre, Jeudi

    Heure Température Précipitation Vent Pression Humidité
    00:00 -1°C° 0 mm 4 m/s 753 mmHg 92%
    01:00 0°C° 0 mm 3 m/s 753 mmHg 92%
    02:00 0°C° 0.1 mm 3 m/s 753 mmHg 92%
    03:00 0°C° 0.1 mm 3 m/s 753 mmHg 93%
    04:00 0°C° 0.1 mm 3 m/s 753 mmHg 93%
    05:00 0°C° 0.1 mm 3 m/s 753 mmHg 93%
    06:00 0°C° 0.1 mm 3 m/s 753 mmHg 93%
    07:00 0°C° 0.1 mm 3 m/s 754 mmHg 93%
    08:00 0°C° 0.1 mm 3 m/s 754 mmHg 93%
    09:00 0°C° 0.1 mm 3 m/s 754 mmHg 92%
    10:00 +1°C° 0.1 mm 3 m/s 754 mmHg 92%
    11:00 +1°C° 0.1 mm 3 m/s 754 mmHg 92%
    12:00 +1°C° 0.1 mm 3 m/s 754 mmHg 91%
    13:00 +1°C° 0.1 mm 3 m/s 754 mmHg 91%
    14:00 +1°C° 0 mm 3 m/s 754 mmHg 92%
    15:00 +1°C° 0 mm 3 m/s 755 mmHg 93%
    16:00 +2°C° 0 mm 2 m/s 755 mmHg 93%
    17:00 +2°C° 0 mm 2 m/s 755 mmHg 93%
    18:00 +2°C° 0 mm 2 m/s 755 mmHg 94%
    19:00 +2°C° 0 mm 2 m/s 755 mmHg 94%
    20:00 +2°C° 0 mm 2 m/s 755 mmHg 94%
    21:00 +2°C° 0 mm 2 m/s 755 mmHg 94%
    22:00 +2°C° 0 mm 2 m/s 756 mmHg 94%
    23:00 +2°C° 0 mm 2 m/s 756 mmHg 94%

    23 Novembre, Vendredi

    Heure Température Précipitation Vent Pression Humidité
    00:00 +1°C° 0 mm 2 m/s 756 mmHg 95%
    01:00 +1°C° 0 mm 2 m/s 756 mmHg 95%
    02:00 +1°C° 0 mm 2 m/s 756 mmHg 95%
    03:00 +1°C° 0 mm 2 m/s 756 mmHg 95%
    04:00 +1°C° 0 mm 2 m/s 756 mmHg 95%
    05:00 +1°C° 0 mm 2 m/s 756 mmHg 95%
    06:00 +2°C° 0 mm 1 m/s 756 mmHg 95%
    07:00 +2°C° 0 mm 1 m/s 756 mmHg 95%
    08:00 +3°C° 0 mm 1 m/s 756 mmHg 94%
    09:00 +4°C° 0 mm 1 m/s 756 mmHg 93%
    10:00 +5°C° 0 mm 1 m/s 756 mmHg 92%
    11:00 +6°C° 0 mm 1 m/s 756 mmHg 91%
    12:00 +6°C° 0 mm 1 m/s 756 mmHg 90%
    13:00 +7°C° 0 mm 1 m/s 756 mmHg 89%
    14:00 +6°C° 0 mm 1 m/s 755 mmHg 91%
    15:00 +6°C° 0 mm 1 m/s 755 mmHg 93%
    16:00 +5°C° 0 mm 1 m/s 755 mmHg 95%
    17:00 +5°C° 0 mm 1 m/s 755 mmHg 95%
    18:00 +5°C° 0 mm 1 m/s 755 mmHg 95%
    19:00 +5°C° 0 mm 1 m/s 755 mmHg 96%
    20:00 +5°C° 0 mm 1 m/s 755 mmHg 95%
    21:00 +4°C° 0 mm 0 m/s 755 mmHg 95%
    22:00 +4°C° 0 mm 0 m/s 755 mmHg 95%
    23:00 +4°C° 0.2 mm 0 m/s 754 mmHg 95%
    Voir plus